Regional Weather Roundup
Issued by NWS

Home | Current Version | Previous Version | Text Only | Print | Product List | Glossary Off
Versions: 1 2 3 4 5 6 7 8 9 10 11 12 13 14 15 16 17 18 19 20 21 22 23 24 25 26 27 28 29 30 31 32 33 34 35 36 37 38 39 40 41 42 43 44 45 46 47 48 49 50

000
ASUS44 KMEG 292110
RWRTN
TENNESSEE HOURLY STATE WEATHER ROUNDUP
NATIONAL WEATHER SERVICE MEMPHIS TN
400 PM CDT SAT APR 29 2017

TNZ002-004-019-021-049-052-054-088>092-292200-
WEST TENNESSEE

CITY           SKY/WX    TMP DP  RH WIND       PRES   REMARKS
MEMPHIS INTL   MOSUNNY   88  70  55 S22G35    29.82F HX  93
NWS MEMPHIS      N/A     87 N/A N/A MISG        N/A
JACKSON        MOSUNNY   86  69  56 S16G25    29.86F HX  90
DYERSBURG      PTSUNNY   87  68  52 S15G28    29.81F HX  90
SOMERVILLE     MOSUNNY   86  68  54 S20G29    29.84F
UNION CITY     MOSUNNY   84  68  58 S21G32    29.82F
BOLIVAR        PTSUNNY   86  70  58 S16G23    29.87F HX  90
HUNTINGDON     MOSUNNY   84  68  58 S18G26    29.88F
LEXINGTON      MOSUNNY   84  68  58 S15G22    29.91F
SAVANNAH       MOSUNNY   86  70  58 S14G23    29.92F HX  90
$$

TNZ008-025-027-028-033-062-065-066-292200-
NORTH MIDDLE TENNESSEE

CITY           SKY/WX    TMP DP  RH WIND       PRES   REMARKS
NASHVILLE      PTSUNNY   90  65  43 S15G29    29.96F HX  92
PORTLAND       PTSUNNY   88  68  51 S14G20    29.95F HX  91
CLARKSVILLE    CLOUDY    87  64  46 S18G26    29.92F
SMYRNA         MOSUNNY   89  67  47 S15G23    29.96F HX  92
COOKEVILLE     MOSUNNY   88  66  48 S10G17    29.99F HX  90
GALLATIN       MOSUNNY   88  66  48 S13G22    29.98S HX  90
CROSSVILLE     MOSUNNY   83  63  50 S14G21    30.08F
$$

TNZ061-075-076-078-094-096-097-292200-
SOUTH MIDDLE TENNESSEE

CITY           SKY/WX    TMP DP  RH WIND       PRES   REMARKS
FAYETTEVILLE   PTSUNNY   86  66  51 S15G22    29.99F
TULLAHOMA      MOSUNNY   88  61  40 S12       30.01F
WINCHESTER     MOSUNNY   88  64  45 S20       30.00F
MCMINNVILLE    SUNNY     90  66  45 S8        30.00F HX  92
COLUMBIA       PTSUNNY   88  70  55 S13       29.95S HX  92
SHELBYVILLE    SUNNY     88  70  55 S17       29.98F HX  92
$$

TNZ017-018-042-046-047-292200-
NORTHEAST TENNESSEE

CITY           SKY/WX    TMP DP  RH WIND       PRES   REMARKS
TRI CITIES     LGT RAIN  84  65  52 S3        30.06F
ELIZABETHTON   CLOUDY    84  66  54 W6        30.06F
$$

TNZ012-013-036-069-073-074-292200-
CENTRAL EAST TENNESSEE

CITY           SKY/WX    TMP DP  RH WIND       PRES   REMARKS
KNOXVILLE      MOSUNNY   89  60  37 SW16      30.02F
OAK RIDGE      MOSUNNY   89  59  36 S8G17     30.04F
DOWNTOWN KNOXV SUNNY     90  66  45 W9        30.02F HX  92
GATLINBURG     SUNNY     91  64  40 S6        30.02F HX  93
MORRISTOWN     SUNNY     90  66  45 SW6G12    30.04F HX  92
JACKSBORO      SUNNY     88  64  45 S13G18    30.06F
$$

TNZ083-085-099-292200-
SOUTHEAST TENNESSEE

CITY           SKY/WX    TMP DP  RH WIND       PRES   REMARKS
CHATTANOOGA    PTSUNNY   89  64  43 S8G21     30.02F HX  90
$$

SKY/WX REPORTED AS FAIR MEANS FEW OR NO CLOUDS BELOW
12 THOUSAND FEET.





USA.gov is the U.S. government's official web portal to all federal, state and local government web resources and services.